This is the latest recevied weather packets stored in our database for station/object KA7GOO. If no packets are shown the sender has not sent any weather packets the latest 10 day(s).
| Time | Temp. | Humidity | Pressure | Rain* | Wind** | Luminosity | Snow |
|---|---|---|---|---|---|---|---|
| 1787529703 | 41.67° C | 30% | 1000.3 hPa | 0 mm | - | - | - |
| 1787528788 | 41.67° C | 30% | 1000.3 hPa | 0 mm | - | - | - |
| 1787527888 | 42.78° C | 30% | 1000.4 hPa | 0 mm | - | - | - |
| 1787527000 | 42.22° C | 30% | 1000.8 hPa | 0 mm | - | - | - |
| 1787526095 | 42.22° C | 30% | 1000.8 hPa | 0 mm | - | - | - |
| 1787525193 | 42.78° C | 30% | 1000.7 hPa | 0 mm | - | - | - |
| 1787524292 | 42.78° C | 30% | 1000.9 hPa | 0 mm | - | - | - |
| 1787523315 | 42.78° C | 30% | 1000.9 hPa | 0 mm | - | - | - |
| 1787522484 | 42.78° C | 30% | 1001.2 hPa | 0 mm | - | - | - |
| 1787521566 | 42.78° C | 30% | 1001.5 hPa | 0 mm | - | - | - |
| 1787520693 | 42.22° C | 30% | 1001.7 hPa | 0 mm | - | - | - |
| 1787519776 | 42.22° C | 30% | 1002 hPa | 0 mm | - | - | - |
| 1787518805 | 41.67° C | 30% | 1002.2 hPa | 0 mm | - | - | - |
| 1787517913 | 41.11° C | 30% | 1002.2 hPa | 0 mm | - | - | - |
| 1787517095 | 41.67° C | 30% | 1002.7 hPa | 0 mm | - | - | - |
| 1787516178 | 42.22° C | 30% | 1002.8 hPa | 0 mm | - | - | - |
| 1787515283 | 42.22° C | 30% | 1003.3 hPa | 0 mm | - | - | - |
| 1787514409 | 41.67° C | 30% | 1003.5 hPa | 0 mm | - | - | - |
| 1787513465 | 41.67° C | 30% | 1003.8 hPa | 0 mm | - | - | - |
| 1787512505 | 41.11° C | 30% | 1004.2 hPa | 0 mm | - | - | - |
| 1787511696 | - | - | 1004.3 hPa | 0 mm | - | - | - |
| 1787510772 | - | - | 1004.5 hPa | 0 mm | - | - | - |
| 1787509878 | - | - | 1004.7 hPa | 0 mm | - | - | - |
| 1787508991 | - | - | 1004.8 hPa | 0 mm | - | - | - |
| 1787508083 | - | - | 1004.9 hPa | 0 mm | - | - | - |
* Rain latest hour (hover to see other rain measurements)
** Current wind speed in m/s (hover to see current wind gust speed)